Погода в Пуэрто-Вальярта

Мексика     20°37′51″N   105°13′41″W
темп.,
°C
ветер,
м/с
пор.,
м/с
влажн.,
%
обл.,
%
осадки,
мм/ч
давл.,
гПа
погр.,
м
6 мая, чт
чт601:00+19всв11840 0.0 101520
04:00+18всв11854 0.0 101420
07:00+18всв11835 0.0 101522
10:00+26ссз12555 0.0 1016496
13:00+32з433720 0.0 10141102
16:00+31з43387 0.0 10121038
19:00+28зюз324879 0.0 1011738
22:00+21ссв11799 0.0 101423
7 мая, пт
пт701:00+21ссз118059 0.0 101425
04:00+21юз118135 0.0 101329
07:00+19ююв118516 0.0 101317
10:00+27ссз11535 0.0 1014515
13:00+32з533672 0.0 10121097
16:00+32зюз544068 0.0 10111015
19:00+28зюз334824 0.1 1011696
22:00+22ююз1177100 0.1 101320
8 мая, сб
сб801:00+21ссз11794 0.1 101418
04:00+20св11785 0.0 101318
07:00+20ссв00765 0.0 101216
10:00+27з115069 0.0 1013453
13:00+32зюз533999 0.0 10131182
16:00+31зюз544279 0.0 10111090
19:00+28зюз325135 0.0 1011709
22:00+22з118115 0.0 101317
9 мая, вс
вс901:00+21св118198 0.0 101417
04:00+21всв1173100 0.0 101218
07:00+21всв1166100 0.0 101217
10:00+28зсз114356 0.0 1013463
13:00+33з4327100 0.0 10121298
16:00+32зюз4430100 0.0 10101131
19:00+29з3240100 0.0 1010650
22:00+22вюв1168100 0.0 101219
10 мая, пн
пн1001:00+22сз116399 0.0 101215
04:00+21в1162100 0.0 101118
07:00+22в2252100 0.0 101143
10:00+28сз113499 0.0 1012397
13:00+33зюз4227100 0.0 10111126
16:00+32зюз5432100 0.0 10101039
19:00+29зюз3341100 0.0 1010829
22:00+22ююз2268100 0.0 101232